Hourly Weather Dziembowko

Today, 8 May, Saturday

Time Temperature Precipitation Wind Pressure Humidity
00:00 +1°C° 0 mm 4 mps 754 mmHg 95%
01:00 +1°C° 0 mm 4 mps 754 mmHg 95%
02:00 0°C° 0 mm 4 mps 754 mmHg 95%
03:00 0°C° 0 mm 4 mps 755 mmHg 96%
04:00 0°C° 0 mm 3 mps 755 mmHg 97%
05:00 +1°C° 0 mm 4 mps 755 mmHg 93%
06:00 +3°C° 0 mm 4 mps 755 mmHg 90%
07:00 +3°C° 0 mm 5 mps 756 mmHg 86%
08:00 +5°C° 0 mm 5 mps 756 mmHg 78%
09:00 +6°C° 0 mm 5 mps 756 mmHg 69%
10:00 +8°C° 0 mm 6 mps 757 mmHg 61%
11:00 +9°C° 0 mm 5 mps 757 mmHg 55%
12:00 +10°C° 0 mm 5 mps 757 mmHg 48%
13:00 +12°C° 0 mm 5 mps 757 mmHg 42%
14:00 +12°C° 0 mm 5 mps 757 mmHg 42%
15:00 +12°C° 0 mm 5 mps 757 mmHg 43%
16:00 +12°C° 0 mm 4 mps 757 mmHg 43%
17:00 +11°C° 0 mm 3 mps 757 mmHg 49%
18:00 +10°C° 0 mm 2 mps 757 mmHg 55%
19:00 +9°C° 0 mm 1 mps 757 mmHg 61%
20:00 +8°C° 0 mm 1 mps 757 mmHg 62%
21:00 +7°C° 0 mm 2 mps 757 mmHg 63%
22:00 +6°C° 0 mm 2 mps 757 mmHg 64%
23:00 +5°C° 0 mm 2 mps 757 mmHg 67%

Tomorrow, 9 May, Sunday

Time Temperature Precipitation Wind Pressure Humidity
00:00 +4°C° 0 mm 3 mps 757 mmHg 70%
01:00 +3°C° 0 mm 3 mps 757 mmHg 74%
02:00 +4°C° 0 mm 3 mps 756 mmHg 74%
03:00 +5°C° 0 mm 4 mps 756 mmHg 73%
04:00 +5°C° 0 mm 4 mps 756 mmHg 73%
05:00 +6°C° 0 mm 4 mps 755 mmHg 72%
06:00 +6°C° 0 mm 4 mps 755 mmHg 70%
07:00 +7°C° 0 mm 4 mps 755 mmHg 69%
08:00 +8°C° 0 mm 4 mps 755 mmHg 67%
09:00 +10°C° 0 mm 5 mps 755 mmHg 66%
10:00 +12°C° 0 mm 5 mps 755 mmHg 64%
11:00 +14°C° 0 mm 5 mps 755 mmHg 60%
12:00 +17°C° 0 mm 5 mps 754 mmHg 56%
13:00 +20°C° 0 mm 5 mps 754 mmHg 52%
14:00 +20°C° 0 mm 5 mps 754 mmHg 55%
15:00 +20°C° 0 mm 5 mps 754 mmHg 58%
16:00 +21°C° 0 mm 5 mps 753 mmHg 61%
17:00 +19°C° 0 mm 5 mps 753 mmHg 67%
18:00 +18°C° 0 mm 4 mps 753 mmHg 73%
19:00 +17°C° 0 mm 4 mps 753 mmHg 80%
20:00 +15°C° 0 mm 4 mps 753 mmHg 82%
21:00 +13°C° 0 mm 4 mps 754 mmHg 84%
22:00 +12°C° 0 mm 4 mps 754 mmHg 86%
23:00 +12°C° 0 mm 4 mps 754 mmHg 85%

Day after tomorrow, 10 May, Monday

Time Temperature Precipitation Wind Pressure Humidity
00:00 +11°C° 0 mm 4 mps 754 mmHg 84%
01:00 +11°C° 0 mm 4 mps 753 mmHg 83%
02:00 +10°C° 0 mm 4 mps 753 mmHg 83%
03:00 +9°C° 0 mm 3 mps 753 mmHg 83%
04:00 +9°C° 0 mm 3 mps 753 mmHg 83%
05:00 +10°C° 0 mm 4 mps 753 mmHg 78%
06:00 +12°C° 0 mm 5 mps 753 mmHg 73%
07:00 +13°C° 0 mm 5 mps 753 mmHg 68%
08:00 +15°C° 0 mm 6 mps 753 mmHg 64%
09:00 +17°C° 0 mm 7 mps 753 mmHg 59%
10:00 +20°C° 0 mm 7 mps 752 mmHg 55%
11:00 +21°C° 0 mm 8 mps 752 mmHg 55%
12:00 +21°C° 0 mm 8 mps 752 mmHg 54%
13:00 +22°C° 0 mm 8 mps 752 mmHg 54%
14:00 +22°C° 0 mm 7 mps 752 mmHg 56%
15:00 +23°C° 0 mm 6 mps 752 mmHg 59%
16:00 +23°C° 0 mm 6 mps 752 mmHg 61%
17:00 +21°C° 0 mm 5 mps 752 mmHg 67%
18:00 +20°C° 0 mm 4 mps 752 mmHg 74%
19:00 +19°C° 0 mm 3 mps 752 mmHg 80%
20:00 +17°C° 0 mm 3 mps 752 mmHg 84%
21:00 +16°C° 0 mm 3 mps 752 mmHg 87%
22:00 +14°C° 0 mm 3 mps 752 mmHg 91%
23:00 +14°C° 0 mm 3 mps 752 mmHg 92%

11 May, Tuesday

Time Temperature Precipitation Wind Pressure Humidity
00:00 +13°C° 0 mm 3 mps 752 mmHg 93%
01:00 +13°C° 0 mm 3 mps 752 mmHg 94%
02:00 +13°C° 0 mm 3 mps 752 mmHg 93%
03:00 +13°C° 0 mm 3 mps 751 mmHg 93%
04:00 +12°C° 0 mm 4 mps 751 mmHg 92%
05:00 +14°C° 0 mm 4 mps 751 mmHg 87%
06:00 +15°C° 0 mm 5 mps 751 mmHg 82%
07:00 +17°C° 0 mm 5 mps 751 mmHg 77%
08:00 +19°C° 0 mm 5 mps 751 mmHg 72%
09:00 +20°C° 0 mm 5 mps 751 mmHg 67%
10:00 +22°C° 0 mm 6 mps 750 mmHg 61%
11:00 +23°C° 0 mm 6 mps 750 mmHg 60%
12:00 +24°C° 0 mm 6 mps 750 mmHg 58%
13:00 +24°C° 0 mm 6 mps 750 mmHg 56%
14:00 +24°C° 0 mm 6 mps 750 mmHg 59%
15:00 +25°C° 0 mm 5 mps 749 mmHg 62%
16:00 +25°C° 0 mm 5 mps 749 mmHg 64%
17:00 +23°C° 0 mm 4 mps 749 mmHg 69%
18:00 +22°C° 0 mm 3 mps 749 mmHg 74%
19:00 +20°C° 0 mm 2 mps 749 mmHg 78%
20:00 +19°C° 0 mm 3 mps 749 mmHg 82%
21:00 +18°C° 0 mm 3 mps 749 mmHg 86%
22:00 +17°C° 0 mm 3 mps 749 mmHg 89%
23:00 +17°C° 0 mm 3 mps 749 mmHg 90%

12 May, Wednesday

Time Temperature Precipitation Wind Pressure Humidity
00:00 +15°C° 0 mm 4 mps 749 mmHg 91%
01:00 +15°C° 0 mm 4 mps 749 mmHg 91%
02:00 +15°C° 0 mm 4 mps 749 mmHg 90%
03:00 +14°C° 0 mm 5 mps 749 mmHg 89%
04:00 +14°C° 0 mm 5 mps 749 mmHg 88%
05:00 +14°C° 0 mm 5 mps 749 mmHg 85%
06:00 +15°C° 0 mm 5 mps 749 mmHg 82%
07:00 +16°C° 0 mm 5 mps 749 mmHg 79%
08:00 +17°C° 0 mm 6 mps 749 mmHg 74%
09:00 +20°C° 0 mm 6 mps 749 mmHg 68%
10:00 +22°C° 0 mm 6 mps 749 mmHg 63%
11:00 +22°C° 0 mm 6 mps 749 mmHg 61%
12:00 +23°C° 0 mm 6 mps 749 mmHg 60%
13:00 +24°C° 0 mm 6 mps 749 mmHg 58%
14:00 +24°C° 0 mm 6 mps 749 mmHg 59%
15:00 +24°C° 0 mm 6 mps 749 mmHg 61%
16:00 +24°C° 0 mm 6 mps 748 mmHg 62%
17:00 +22°C° 0 mm 6 mps 748 mmHg 66%
18:00 +21°C° 0 mm 7 mps 748 mmHg 69%
19:00 +20°C° 0 mm 7 mps 748 mmHg 73%
20:00 +19°C° 0 mm 6 mps 749 mmHg 71%
21:00 +17°C° 0 mm 6 mps 749 mmHg 70%
22:00 +16°C° 0 mm 6 mps 749 mmHg 69%
23:00 +15°C° 0 mm 5 mps 749 mmHg 74%

13 May, Thursday

Time Temperature Precipitation Wind Pressure Humidity
00:00 +14°C° 0 mm 5 mps 749 mmHg 78%
01:00 +13°C° 0 mm 5 mps 749 mmHg 83%
02:00 +13°C° 0 mm 5 mps 749 mmHg 85%
03:00 +12°C° 0 mm 5 mps 749 mmHg 87%
04:00 +11°C° 0 mm 6 mps 749 mmHg 89%
05:00 +11°C° 0 mm 6 mps 750 mmHg 84%
06:00 +13°C° 0 mm 6 mps 750 mmHg 79%
07:00 +12°C° 0 mm 7 mps 750 mmHg 74%
08:00 +14°C° 0 mm 7 mps 750 mmHg 68%
09:00 +15°C° 0 mm 7 mps 750 mmHg 63%
10:00 +16°C° 0 mm 7 mps 750 mmHg 57%
11:00 +17°C° 0 mm 7 mps 750 mmHg 55%
12:00 +18°C° 0 mm 8 mps 750 mmHg 53%
13:00 +18°C° 0 mm 8 mps 750 mmHg 52%
14:00 +17°C° 0 mm 7 mps 750 mmHg 56%
15:00 +17°C° 0 mm 5 mps 750 mmHg 61%
16:00 +17°C° 0 mm 4 mps 750 mmHg 65%
17:00 +15°C° 0 mm 4 mps 750 mmHg 69%
18:00 +16°C° 0 mm 3 mps 750 mmHg 73%
19:00 +15°C° 0 mm 2 mps 750 mmHg 76%
20:00 +14°C° 0 mm 2 mps 750 mmHg 80%
21:00 +13°C° 0 mm 2 mps 750 mmHg 83%
22:00 +12°C° 0 mm 2 mps 750 mmHg 86%
23:00 +12°C° 0 mm 2 mps 750 mmHg 88%
Show more

We Need Your Consent

Meteoprog and our Service Providers may store and access personal data such as cookies, device identifiers or other similar technologies on your device and process such data to personalise content and ads, as well as provide social media features and to analyse the traffic.

  • Store and/or access information on your device

    Cookies, device identifiers or other information can be stored or accessed on your device for the purposes indicated above.

  • Personalised ads and content, ad and content measurement, audience insights, and products development

    Ads and content can be personalised based on a profile. More data can be added to better personalise ads and content. Ad and content performance can be measured. Insights about the audience who saw the ads and content can be derived. Such data can be used to develop or improve user’s experience, systems and software.

By clicking ‘I Agree’ you will allow the use of indicated cookies, device identifiers, web beacons or other similar technologies. Your settings can be changed in the browser on your device.

For certain purposes, legitimate interests may be relied on, rather than consent. You can read more about this in our Privacy and Cookie Policy.